Weather History for Hatteras, NC

Change the Weather History Date:

Tuesday, November 13, 2012

  Actual Average Record
Temperature  
Mean Temperature 59 °F 58 °F  
Max Temperature 67 °F 65 °F 78 °F (1993)
Min Temperature 51 °F 52 °F 33 °F (1963)
Degree Days  
Heating Degree Days 6 7  
Month to date heating degree days 156 78  
Since 1 July heating degree days 218 153  
Cooling Degree Days 0 1  
Month to date cooling degree days 0 13  
Year to date cooling degree days 2090 1703  
Growing Degree Days 8 (Base 50)    
Moisture  
Dew Point 57 °F    
Average Humidity 93    
Maximum Humidity 100    
Minimum Humidity 86    
Precipitation  
Precipitation 0.10 in 0.17 in 1.44 in (2008)
Month to date precipitation 0.87 2.31  
Year to date precipitation 50.98 51.13  
Snow  
Snow 0.00 in - - ()
Month to date snowfall 0.0  
Since 1 July snowfall 0.0  
Snow Depth 0.00 in    
Sea Level Pressure  
Sea Level Pressure 30.24 in    
Wind  
Wind Speed 9 mph (NE)    
Max Wind Speed 16 mph    
Max Gust Speed 30 mph    
Visibility 8 miles    
Events Rain    
T = Trace of Precipitation, MM = Missing Value Source: NWS Daily Summary

Daily Weather History Graph

Daily Weather History Graph

Search for Another Location

Airport:

Trip Planner

Search our weather history database for the weather conditions in past years. The results will help you decide how hot, cold, wet, or windy it might be!

Date:

Astronomy

Nov. 13, 2012 Rise Set
Actual Time 6:35 AM EST 4:57 PM EST
Civil Twilight 6:08 AM EST 5:24 PM EST
Nautical Twilight 5:38 AM EST 5:54 PM EST
Astronomical Twilight 5:08 AM EST 6:24 PM EST
Moon 6:10 AM EST (11/13) 4:49 PM EST (11/13)
Length of Visible Light 11h 15m
Length of Day
10h 21m
Waning Crescent, 0% of the Moon is Illuminated
Nov 13
Waning Crescent
Nov 13
New
Nov 20
First Quarter
Nov 28
Full
Dec 6
Last Quarter

Hourly Weather History & Observations

Time (EST) Temp. Dew Point Humidity Pressure Visibility Wind Dir Wind Speed Gust Speed Precip Events Conditions
12:51 AM 64.9 °F 61.0 °F 87% 30.23 in 9.0 mi South 5.8 mph - N/A   Clear
1:51 AM 64.9 °F 61.0 °F 87% 30.21 in 10.0 mi SSW 5.8 mph - N/A   Clear
2:51 AM 64.9 °F 61.0 °F 87% 30.21 in 9.0 mi West 4.6 mph - N/A   Mostly Cloudy
3:51 AM 64.0 °F 61.0 °F 90% 30.19 in 10.0 mi Calm Calm - N/A   Overcast
4:14 AM 64.4 °F 62.6 °F 94% 30.20 in 2.5 mi Calm Calm - 0.03 in Rain Rain
4:22 AM 64.4 °F 62.6 °F 94% 30.19 in 4.0 mi Calm Calm - 0.04 in Rain Rain
4:51 AM 64.0 °F 61.0 °F 90% 30.21 in 5.0 mi West 5.8 mph - 0.04 in Rain Rain
5:51 AM 64.0 °F 61.0 °F 90% 30.21 in 9.0 mi SSW 13.8 mph - 0.03 in Rain Light Rain
6:51 AM 64.0 °F 62.1 °F 93% 30.22 in 8.0 mi Calm Calm - 0.00 in Rain Light Rain
7:51 AM 64.0 °F 62.1 °F 93% 30.24 in 7.0 mi Calm Calm - 0.01 in Rain Light Rain
8:06 AM 64.4 °F 62.6 °F 94% 30.24 in 2.5 mi SE 4.6 mph - 0.01 in Rain Light Rain
8:13 AM 64.4 °F 62.6 °F 94% 30.24 in 5.0 mi Calm Calm - 0.01 in Rain Light Rain
8:51 AM 64.0 °F 62.1 °F 93% 30.24 in 9.0 mi SE 5.8 mph - 0.02 in   Overcast
9:51 AM 64.9 °F 63.0 °F 93% 30.25 in 7.0 mi Calm Calm - 0.00 in   Overcast
10:51 AM 64.0 °F 62.1 °F 93% 30.24 in 10.0 mi South 8.1 mph - N/A   Overcast
11:51 AM 64.9 °F 63.0 °F 93% 30.22 in 8.0 mi SSE 6.9 mph - 0.00 in   Mostly Cloudy
12:51 PM 57.0 °F 53.1 °F 87% 30.23 in 10.0 mi NNE 15.0 mph 27.6 mph 0.00 in   Overcast
1:00 PM 55.4 °F 53.6 °F 94% 30.23 in 10.0 mi NNE 10.4 mph 27.6 mph N/A   Overcast
1:51 PM 55.9 °F 53.1 °F 90% 30.23 in 10.0 mi NNE 15.0 mph 26.5 mph N/A   Overcast
2:51 PM 55.0 °F 52.0 °F 89% 30.23 in 10.0 mi NNE 11.5 mph 26.5 mph N/A   Overcast
3:51 PM 54.0 °F 51.1 °F 90% 30.25 in 10.0 mi NE 11.5 mph 21.9 mph N/A   Overcast
4:51 PM 53.1 °F 51.1 °F 93% 30.24 in 9.0 mi NNE 11.5 mph 25.3 mph N/A   Overcast
5:51 PM 53.1 °F 50.0 °F 89% 30.26 in 10.0 mi NNE 13.8 mph 25.3 mph N/A   Overcast
6:51 PM 54.0 °F 51.1 °F 90% 30.28 in 10.0 mi NNE 12.7 mph 21.9 mph N/A   Overcast
7:44 PM 53.6 °F 51.8 °F 94% 30.30 in 10.0 mi NNE 9.2 mph 25.3 mph N/A   Overcast
7:51 PM 54.0 °F 51.1 °F 90% 30.30 in 10.0 mi NNE 12.7 mph 24.2 mph N/A   Overcast
8:51 PM 53.1 °F 51.1 °F 93% 30.31 in 5.0 mi NNE 11.5 mph 23.0 mph N/A   Overcast
9:51 PM 52.0 °F 51.1 °F 97% 30.31 in 6.0 mi NNE 13.8 mph 25.3 mph N/A   Overcast
10:51 PM 52.0 °F 51.1 °F 97% 30.32 in 4.0 mi NNE 13.8 mph 21.9 mph N/A   Overcast
11:51 PM 51.1 °F 50.0 °F 96% 30.31 in 5.0 mi NNE 15.0 mph 25.3 mph N/A   Overcast